XW-2D
1 40907U 15049J 23334.79898199 .00030448 00000-0 88791-3 0 9999
2 40907 97.4875 344.1955 0006910 291.6933 68.3574 15.35287075453987
LILACSAT-2
1 40908U 15049K 23334.81213606 .00011865 00000-0 51653-3 0 9996
2 40908 97.5275 337.7131 0012448 337.3982 22.6704 15.22315716453126
XW-2E
1 40909U 15049L 23334.80447196 .00101068 00000-0 14618-2 0 9993
2 40909 97.4378 353.0295 0003688 212.6283 147.4743 15.55561293454878
XW-2F
1 40910U 15049M 23334.82045574 .00098430 00000-0 14776-2 0 9994
2 40910 97.4480 352.3045 0004177 219.9327 140.1620 15.54549289454607
XW-2B
1 40911U 15049N 23334.82458872 .00031202 00000-0 91976-3 0 9996
2 40911 97.4853 344.5397 0006938 293.5759 66.4755 15.34942029453862
DCBB
1 40912U 15049P 23334.80391872 .00214896 00000-0 16493-2 0 9993
2 40912 97.3936 358.2197 0005388 150.6002 209.5565 15.71410607455488
IO-86
1 40931U 15052B 23334.56807149 .00001891 00000-0 17038-3 0 9996
2 40931 6.0017 338.6299 0012591 133.8586 226.2583 14.77501334441995
ChubuSat-2
1 41338U 16012B 23334.11018063 .00008129 00000-0 54202-3 0 9990
2 41338 31.0014 235.7930 0011809 30.9199 329.2131 15.05695895427398
ChubuSat-3
1 41339U 16012C 23334.79151193 .00007383 00000-0 49574-3 0 9994
2 41339 31.0075 228.9645 0011751 44.3127 315.8449 15.05402100427487
Horyu-4
1 41340U 16012D 23333.98816977 .00015426 00000-0 89106-3 0 9996
2 41340 31.0015 194.5979 0010347 104.0485 256.1304 15.11093755427792
e-st@r-II
1 41459U 16025D 23334.57085060 .00077326 00000-0 14438-2 0 9990
2 41459 98.1587 194.2387 0076148 234.0244 125.3925 15.45297823418446
Lapan A3
1 41603U 16040E 23334.81546936 .00005275 00000-0 22283-3 0 9991
2 41603 97.1545 352.6883 0014312 88.0859 272.2018 15.23564641412850
Pratham
1 41783U 16059A 23334.50158175 .00001836 00000-0 35406-3 0 9990
2 41783 97.8539 358.1247 0031520 294.9171 64.8758 14.64335619383318
CAS-2T
1 41847U 16066G 23334.16748361 .00002046 00000-0 30784-3 0 9991
2 41847 98.4865 41.8408 0358188 59.2044 304.3888 14.40398947370696
CAS-4B
1 42759U 17034B 23334.80088276 .00017911 00000-0 79203-3 0 9999
2 42759 43.0139 267.0358 0009897 111.0912 249.0997 15.21363146356970
CAS-4A
1 42761U 17034D 23334.81491388 .00019354 00000-0 85325-3 0 9990
2 42761 43.0136 265.4478 0010576 112.9853 247.2113 15.21419426356989
NIUSat
1 42766U 17036B 23334.62994655 .00076465 00000-0 11891-2 0 9993
2 42766 97.1340 3.3890 0005647 193.3698 166.7408 15.53651741358315
Aalto 1
1 42775U 17036L 23334.61980202 .00038314 00000-0 82904-3 0 9990
2 42775 97.1333 0.5906 0006566 209.0760 151.0125 15.44351675358125
URSA MAIOR
1 42776U 17036M 23334.65353133 .00050531 00000-0 95548-3 0 9995
2 42776 97.1331 2.6321 0006162 199.1018 161.0003 15.48233108358248
Max Valier Sat
1 42778U 17036P 23334.63659408 .00053292 00000-0 94958-3 0 9990
2 42778 97.1322 6.4688 0005266 197.1886 162.9189 15.49927159358403
Pegasus
1 42784U 17036V 23333.67597011 .00275649 00000-0 16009-2 0 9993
2 42784 97.1183 11.4197 0003476 167.2121 192.9235 15.77743470358742
VENTA 1
1 42791U 17036AC 23334.40845032 .00304902 00000-0 16403-2 0 9995
2 42791 97.1147 13.4712 0003156 159.7389 200.4005 15.79384987358928
D-SAT
1 42794U 17036AF 23333.95487022 .00006872 00000-0 51943-3 0 9992
2 42794 97.4787 318.6259 0114096 103.4028 257.9943 14.97546160350755
TechnoSat
1 42829U 17042E 23334.47680993 .00006197 00000-0 57360-3 0 9997
2 42829 97.3791 162.0483 0013996 32.6954 327.5131 14.94777319347327
AO-91
1 43017U 17073E 23333.74152125 .00013721 00000-0 91519-3 0 9996
2 43017 97.6032 211.6067 0222150 241.1912 116.6840 14.89137433325794
AO-92
1 43137U 18004AC 23334.74225094 .00171139 00000-0 13698-2 0 9990
2 43137 97.3086 57.7842 0003565 244.1628 115.9267 15.70538337328187
TianYi 2
1 43155U 18008A 23334.82197502 .00045860 00000-0 13513-2 0 9992
2 43155 97.2738 24.0494 0011934 78.1544 282.1037 15.34820243324123
Zhou Enlai
1 43156U 18008B 23334.78367028 .00055648 00000-0 15455-2 0 9992
2 43156 97.2783 24.4929 0009637 79.2272 281.0056 15.36651716324069
TianYi 6
1 43158U 18008D 23334.66780470 .00034092 00000-0 11521-2 0 9991
2 43158 97.2830 20.2972 0010635 85.1800 275.0655 15.30518944323818
S-Net D
1 43186U 18014G 23333.69256799 .00008240 00000-0 63159-3 0 9994
2 43186 97.5999 234.2528 0011596 334.0485 26.0157 15.02033354318387
S-Net B
1 43187U 18014H 23334.29362862 .00007894 00000-0 60513-3 0 9996
2 43187 97.6004 234.7772 0012107 327.7500 32.2984 15.02038968318471
S-Net A
1 43188U 18014J 23334.29342241 .00007756 00000-0 59452-3 0 9993
2 43188 97.6008 234.8746 0011980 328.1159 31.9339 15.02043984318475
S-Net C
1 43189U 18014K 23334.29608648 .00007567 00000-0 57997-3 0 9992
2 43189 97.6029 234.7849 0013300 321.2293 38.7977 15.02044910317026
CubeBel-1
1 43666U 18083E 23334.79555347 .00118561 00000-0 15987-2 0 9999
2 43666 97.3568 9.0242 0004580 215.7626 144.3323 15.57396028282938
Changshagaoxin
1 43669U 18083H 23334.82548842 .00075076 00000-0 14202-2 0 9990
2 43669 97.3605 2.3395 0003418 224.1694 135.9284 15.48128354282595
Ten-Koh
1 43677U 18084G 23334.09564831 .00005564 00000-0 52350-3 0 9997
2 43677 98.0365 117.4089 0013948 324.8469 35.1829 14.94231363276820
PO-101
1 43678U 18084H 23334.44815949 .00003540 00000-0 33584-3 0 9996
2 43678 98.0456 122.1064 0008855 340.4577 19.6301 14.94193539277086
QO-100
1 43700U 18090A 23334.46921215 .00000153 00000-0 00000+0 0 9995
2 43700 0.0149 304.0276 0002028 339.4931 340.2878 1.00272442 18593
MinXSS-2
1 43758U 18099A 23334.64494931 .00012915 00000-0 92389-3 0 9991
2 43758 97.5843 35.4931 0017065 279.8690 80.0609 15.04454773272745
AO-95
1 43770U 18099N 23334.69589069 .00010775 00000-0 81885-3 0 9998
2 43770 97.5789 32.0368 0013078 325.4123 34.6250 15.02263037272582
RANGE-B
1 43772U 18099Q 23334.40997755 .00013965 00000-0 99464-3 0 9990
2 43772 97.5523 34.8329 0005016 226.8585 133.2222 15.04706157272634
RANGE-A
1 43773U 18099R 23334.12883419 .00006312 00000-0 51032-3 0 9998
2 43773 97.5455 28.7317 0012617 287.4490 72.5355 15.00071840272420
MOVE-II
1 43780U 18099Y 23334.11263800 .00023106 00000-0 14919-2 0 9993
2 43780 97.5508 34.9071 0006907 313.7365 46.3291 15.08235639272707
SNUSat 2
1 43782U 18099AA 23334.15698860 .00009461 00000-0 72886-3 0 9993
2 43782 97.5484 31.6836 0013654 252.8217 107.1513 15.01773642272528
SnugLite
1 43784U 18099AC 23333.70389843 .00010822 00000-0 81795-3 0 9995
2 43784 97.5281 30.7607 0003941 270.0731 90.0043 15.02527917272501
ITASat 1
1 43786U 18099AE 23334.69305792 .00008943 00000-0 69552-3 0 9995
2 43786 97.5466 32.7057 0017247 303.4292 56.5283 15.01386637272612
EAGLET 1
1 43790U 18099AJ 23334.39900092 .00006980 00000-0 55516-3 0 9995
2 43790 97.5628 32.8120 0015506 291.4652 68.4918 15.00631743272292
ESEO
1 43792U 18099AL 23334.14981637 .00003184 00000-0 27091-3 0 9994
2 43792 97.5471 30.4610 0011865 288.2169 71.7762 14.98457627272230
CSIM
1 43793U 18099AM 23334.70002083 .00019379 00000-0 12436-2 0 9995
2 43793 97.5575 37.0153 0013140 280.4065 79.5682 15.08448190272647
